GW0281 Weather Reports


Display with metric or nautical units.
time (UTC)temp
F
wind
direction
speed
MPH
gust
MPH
rain 1hr
in
rain 24hr
in
rain mn
in
humidity
%
barometer
mb
20260504060219 51 76 1.0 2.0 0.00 0.00 0.00 66 1005.8
20260504050646 54 290 0.0 3.0 0.00 0.00 0.00 61 1006.4
20260504050143 54 274 1.0 3.0 0.00 0.00 0.00 61 1006.2
20260504045641 54 310 0.0 3.0 0.00 0.00 0.00 61 1006.3
20260504045140 54 290 2.0 2.0 0.00 0.00 0.00 62 1006.4
20260504044638 54 262 3.0 4.0 0.00 0.00 0.00 61 1006.4
20260504044135 54 268 2.0 3.0 0.00 0.00 0.00 61 1006.5
20260504043632 55 260 2.0 4.0 0.00 0.00 0.00 61 1006.4
20260504043129 55 261 2.0 4.0 0.00 0.00 0.00 61 1006.4
20260504042626 55 269 0.0 3.0 0.00 0.00 0.00 60 1006.7
20260504042123 55 245 0.0 3.0 0.00 0.00 0.00 60 1006.5
20260504041619 55 275 1.0 3.0 0.00 0.00 0.00 59 1006.5
20260504041115 56 280 1.0 3.0 0.00 0.00 0.00 58 1006.5
20260504040613 56 265 2.0 3.0 0.00 0.00 0.00 58 1006.5
20260504040109 56 267 2.0 3.0 0.00 0.00 0.00 57 1006.6
20260504035606 56 269 2.0 2.0 0.00 0.00 0.00 56 1006.6
20260504035102 57 267 2.0 3.0 0.00 0.00 0.00 55 1006.5
20260504034600 56 252 0.0 3.0 0.00 0.00 0.00 56 1006.6
20260504034057 57 240 0.0 2.0 0.00 0.00 0.00 55 1006.7
20260504033555 58 256 2.0 5.0 0.00 0.00 0.00 55 1006.5
20260504033052 58 249 3.0 6.0 0.00 0.00 0.00 54 1006.7
20260504032549 57 271 2.0 5.0 0.00 0.00 0.00 53 1006.5
20260504032046 57 264 1.0 3.0 0.00 0.00 0.00 52 1006.8
20260504031543 57 303 1.0 3.0 0.00 0.00 0.00 53 1006.6
20260504031039 57 284 0.0 3.0 0.00 0.00 0.00 53 1006.7
20260504030536 57 278 3.0 5.0 0.00 0.00 0.00 52 1006.6
20260504030032 58 261 1.0 5.0 0.00 0.00 0.00 52 1006.8
20260504025530 57 272 2.0 6.0 0.00 0.00 0.00 51 1006.6
20260504025026 57 289 1.0 3.0 0.00 0.00 0.00 52 1006.5
20260504024523 58 272 2.0 3.0 0.00 0.00 0.00 51 1006.6
20260504024020 58 259 2.0 6.0 0.00 0.00 0.00 51 1006.7
20260504023517 58 280 2.0 3.0 0.00 0.00 0.00 51 1006.4
20260504023013 59 274 2.0 5.0 0.00 0.00 0.00 51 1006.4
20260504022509 59 242 3.0 5.0 0.00 0.00 0.00 51 1006.4
20260504022006 59 256 3.0 5.0 0.00 0.00 0.00 51 1006.2
20260504021503 59 274 0.0 2.0 0.00 0.00 0.00 50 1006.4
20260504021000 60 227 2.0 5.0 0.00 0.00 0.00 48 1006.2
20260504020456 60 250 2.0 3.0 0.00 0.00 0.00 48 1006.2
20260504015953 60 244 0.0 4.0 0.00 0.00 0.00 48 1006.0
20260504015449 60 263 1.0 2.0 0.00 0.00 0.00 48 1006.0
20260504014945 61 265 3.0 5.0 0.00 0.00 0.00 47 1006.0
20260504014441 61 285 2.0 3.0 0.00 0.00 0.00 47 1006.0
20260504013938 60 269 0.0 1.0 0.00 0.00 0.00 49 1005.9
20260504013437 60 142 0.0 1.0 0.00 0.00 0.00 48 1006.0
20260504012932 62 322 0.0 2.0 0.00 0.00 0.00 46 1006.0
20260504012431 63 266 2.0 6.0 0.00 0.00 0.00 45 1006.0
20260504011928 64 251 5.0 7.0 0.00 0.00 0.00 42 1005.9
20260504011425 64 263 4.0 6.0 0.00 0.00 0.00 42 1005.8
20260504010920 65 256 8.0 8.0 0.00 0.00 0.00 44 1005.8
20260504010417 65 258 5.0 7.0 0.00 0.00 0.00 45 1005.7
20260504005913 66 258 3.0 5.0 0.00 0.00 0.00 46 1005.7
20260504005410 67 267 3.0 7.0 0.00 0.00 0.00 45 1005.6
20260504004908 68 268 3.0 6.0 0.00 0.00 0.00 44 1005.5
20260504004405 68 277 3.0 7.0 0.00 0.00 0.00 43 1005.7
20260504003902 69 265 6.0 11.0 0.00 0.00 0.00 42 1005.7
20260504003358 69 273 5.0 10.0 0.00 0.00 0.00 43 1005.4
20260504002855 70 261 8.0 17.0 0.00 0.00 0.00 42 1005.5
20260504002352 70 246 9.0 16.0 0.00 0.00 0.00 42 1005.3
20260504001849 70 247 13.0 16.0 0.00 0.00 0.00 42 1005.3
20260504001347 70 248 9.0 19.0 0.00 0.00 0.00 42 1005.5
20260504000843 71 239 12.0 24.0 0.00 0.00 0.00 41 1005.4
20260504000340 71 254 14.0 19.0 0.00 0.00 0.00 42 1005.3
20260503235838 71 247 15.0 25.0 0.00 0.00 0.00 42 1005.1
20260503235335 72 245 11.0 18.0 0.00 0.00 0.00 41 1005.4
20260503234833 71 244 12.0 17.0 0.00 0.00 0.00 42 1005.6
20260503234330 72 253 9.0 19.0 0.00 0.00 0.00 42 1005.3
20260503233828 72 246 13.0 20.0 0.00 0.00 0.00 41 1005.1
20260503233323 72 253 24.0 25.0 0.00 0.00 0.00 40 1005.4
20260503232820 72 254 8.0 18.0 0.00 0.00 0.00 43 1005.7
20260503232318 71 248 17.0 21.0 0.00 0.00 0.00 42 1005.5
20260503231816 72 244 13.0 20.0 0.00 0.00 0.00 42 1005.7
20260503231312 71 253 11.0 21.0 0.00 0.00 0.00 43 1005.7
20260503230808 71 248 12.0 23.0 0.00 0.00 0.00 44 1005.6
20260503230306 71 248 17.0 25.0 0.00 0.00 0.00 43 1005.6
20260503225803 71 242 17.0 24.0 0.00 0.00 0.00 43 1005.8
20260503225258 71 247 15.0 32.0 0.00 0.00 0.00 43 1005.7
20260503224755 72 247 16.0 28.0 0.00 0.00 0.00 43 1005.7
20260503224253 71 243 5.0 32.0 0.00 0.00 0.00 43 1005.6
20260503223750 71 255 17.0 30.0 0.00 0.00 0.00 43 1005.6
20260503223248 71 250 13.0 27.0 0.00 0.00 0.00 43 1005.9
20260503222743 71 248 15.0 27.0 0.00 0.00 0.00 43 1005.6
20260503222242 71 246 20.0 23.0 0.00 0.00 0.00 43 1005.7
20260503221740 72 260 13.0 23.0 0.00 0.00 0.00 42 1005.9
20260503221237 72 260 13.0 28.0 0.00 0.00 0.00 42 1005.8
20260503220733 72 244 10.0 25.0 0.00 0.00 0.00 42 1005.7
20260503220231 72 251 26.0 30.0 0.00 0.00 0.00 41 1005.7
20260503215727 73 255 15.0 24.0 0.00 0.00 0.00 41 1005.6
20260503215224 72 250 13.0 26.0 0.00 0.00 0.00 40 1005.8
20260503214723 72 251 17.0 23.0 0.00 0.00 0.00 40 1005.6
20260503214219 73 252 16.0 22.0 0.00 0.00 0.00 39 1005.7
20260503213717 72 246 16.0 20.0 0.00 0.00 0.00 41 1005.5
20260503213214 73 256 11.0 20.0 0.00 0.00 0.00 39 1005.6
20260503212711 73 236 17.0 26.0 0.00 0.00 0.00 39 1005.8
20260503212209 73 256 10.0 26.0 0.00 0.00 0.00 38 1005.5
20260503211706 73 266 11.0 27.0 0.00 0.00 0.00 39 1005.6
20260503211202 73 275 16.0 22.0 0.00 0.00 0.00 38 1005.9
20260503210658 74 251 17.0 19.0 0.00 0.00 0.00 38 1005.7
20260503210155 73 281 13.0 17.0 0.00 0.00 0.00 39 1006.0
20260503205650 72 255 10.0 22.0 0.00 0.00 0.00 39 1006.0
20260503205146 73 282 16.0 19.0 0.00 0.00 0.00 38 1006.0
20260503204643 73 261 10.0 22.0 0.00 0.00 0.00 39 1006.0
20260503204141 71 274 11.0 20.0 0.00 0.00 0.00 41 1006.2
20260503203638 72 261 20.0 25.0 0.00 0.00 0.00 39 1006.3
20260503203136 72 252 15.0 22.0 0.00 0.00 0.00 40 1006.2
20260503202633 71 257 15.0 30.0 0.00 0.00 0.00 39 1006.2
20260503202131 72 227 6.0 22.0 0.00 0.00 0.00 39 1006.4
20260503201629 71 242 13.0 23.0 0.00 0.00 0.00 40 1006.2
20260503201126 71 243 12.0 20.0 0.00 0.00 0.00 40 1006.4
20260503200621 71 260 9.0 22.0 0.00 0.00 0.00 41 1006.5
20260503200118 71 262 17.0 32.0 0.00 0.00 0.00 40 1006.4
20260503195615 71 251 18.0 30.0 0.00 0.00 0.00 40 1006.5
20260503195112 71 244 8.0 21.0 0.00 0.00 0.00 41 1006.6
20260503194609 70 250 12.0 25.0 0.00 0.00 0.00 42 1006.6
20260503194104 70 268 17.0 21.0 0.00 0.00 0.00 41 1006.7
20260503193601 70 256 16.0 27.0 0.00 0.00 0.00 41 1006.9
20260503193056 71 257 12.0 35.0 0.00 0.00 0.00 41 1006.9
20260503192553 69 246 17.0 21.0 0.00 0.00 0.00 41 1007.0
20260503192049 69 251 12.0 28.0 0.00 0.00 0.00 42 1007.0
20260503191545 70 267 19.0 27.0 0.00 0.00 0.00 41 1007.0
20260503191042 69 247 7.0 24.0 0.00 0.00 0.00 42 1007.1
20260503190539 69 248 15.0 26.0 0.00 0.00 0.00 42 1007.0
20260503190037 69 244 19.0 30.0 0.00 0.00 0.00 41 1007.2
20260503185533 69 269 22.0 24.0 0.00 0.00 0.00 42 1007.3
20260503185032 68 250 21.0 28.0 0.00 0.00 0.00 43 1007.2
20260503184529 69 255 11.0 25.0 0.00 0.00 0.00 44 1007.2
20260503184026 69 259 35.0 35.0 0.00 0.00 0.00 43 1007.4
20260503183522 68 258 10.0 28.0 0.00 0.00 0.00 43 1007.5
20260503183019 67 249 17.0 25.0 0.00 0.00 0.00 44 1007.4
20260503182518 67 257 18.0 21.0 0.00 0.00 0.00 46 1007.6
20260503182015 66 236 6.0 18.0 0.00 0.00 0.00 45 1007.7
20260503181512 66 244 20.0 36.0 0.00 0.00 0.00 45 1007.5
20260503181008 66 251 12.0 34.0 0.00 0.00 0.00 45 1007.8
20260503180506 66 246 25.0 32.0 0.00 0.00 0.00 45 1008.1
20260503180003 66 256 15.0 23.0 0.00 0.00 0.00 44 1007.7
20260503175501 66 253 16.0 26.0 0.00 0.00 0.00 45 1008.0
20260503174957 65 246 20.0 33.0 0.00 0.00 0.00 45 1008.1
20260503174455 65 245 8.0 28.0 0.00 0.00 0.00 48 1008.3
20260503173950 64 240 17.0 23.0 0.00 0.00 0.00 47 1008.3
20260503173446 63 246 25.0 39.0 0.00 0.00 0.00 47 1008.3
20260503172943 64 249 11.0 28.0 0.00 0.00 0.00 47 1008.4
20260503172440 63 242 17.0 29.0 0.00 0.00 0.00 47 1008.4
20260503171937 63 244 11.0 30.0 0.00 0.00 0.00 46 1008.8
20260503171433 63 252 16.0 30.0 0.00 0.00 0.00 46 1008.8
20260503170931 63 240 7.0 39.0 0.00 0.00 0.00 46 1008.6
20260503170427 63 238 20.0 24.0 0.00 0.00 0.00 46 1008.8
20260503150819 52 306 5.0 16.0 0.00 0.00 0.00 68 1010.3
20260503150315 52 150 4.0 15.0 0.00 0.00 0.00 67 1010.3
20260503140240 51 146 5.0 10.0 0.00 0.00 0.00 71 1011.9
20260503131209 49 148 5.0 8.0 0.00 0.00 0.00 74 1013.0
20260503130707 49 158 4.0 10.0 0.00 0.00 0.00 72 1013.2
20260503130204 49 244 2.0 11.0 0.00 0.00 0.00 71 1013.2
20260503120130 50 176 3.0 8.0 0.00 0.00 0.00 61 1013.3
20260503110557 50 234 1.0 6.0 0.00 0.00 0.00 60 1012.6
20260503090444 48 249 6.0 9.0 0.00 0.00 0.00 63 1013.5
20260503081410 47 139 2.0 7.0 0.00 0.00 0.00 63 1014.1
20260503080908 47 257 4.0 6.0 0.00 0.00 0.00 63 1014.1
20260503080404 47 258 4.0 8.0 0.00 0.00 0.00 62 1013.9
20260503072841 46 133 2.0 5.0 0.00 0.00 0.00 62 1014.1
20260503072338 46 209 2.0 4.0 0.00 0.00 0.00 62 1013.9
20260503071834 46 132 3.0 8.0 0.00 0.00 0.00 61 1014.1
20260503071331 47 224 2.0 5.0 0.00 0.00 0.00 61 1014.4
20260503070827 47 272 2.0 8.0 0.00 0.00 0.00 61 1014.2
20260503070326 47 247 3.0 5.0 0.00 0.00 0.00 61 1014.3